Data supplied by UK-AIR on 23/3/2022
All Data GMT hour ending 
Status: R =Ratified P=Provisional,P*=As supplied
,,Reading London Road,,,,,,,,,,,,,,,,,,,,,,,
Date,time,"PM<sub>10</sub> particulate matter (Hourly measured)",status,unit,"Nitric oxide",status,unit,"Nitrogen dioxide",status,unit,"Nitrogen oxides as nitrogen dioxide",status,unit
 
01-01-2021,01:00,33.817,R,ugm-3 (Ref.eq),3.45532,R,ugm-3,11.92414,R,ugm-3,17.22222,R,ugm-3
01-01-2021,02:00,18.358,R,ugm-3 (Ref.eq),4.11980,R,ugm-3,10.97335,R,ugm-3,17.29029,R,ugm-3
01-01-2021,03:00,16.425,R,ugm-3 (Ref.eq),3.72111,R,ugm-3,10.37639,R,ugm-3,16.08201,R,ugm-3
01-01-2021,04:00,20.290,R,ugm-3 (Ref.eq),3.12308,R,ugm-3,12.97815,R,ugm-3,17.76680,R,ugm-3
01-01-2021,05:00,19.324,R,ugm-3 (Ref.eq),1.96023,R,ugm-3,15.83329,R,ugm-3,18.83893,R,ugm-3
01-01-2021,06:00,23.189,R,ugm-3 (Ref.eq),2.85728,R,ugm-3,22.88174,R,ugm-3,27.26284,R,ugm-3
01-01-2021,07:00,25.121,R,ugm-3 (Ref.eq),3.72111,R,ugm-3,19.51506,R,ugm-3,25.22068,R,ugm-3
01-01-2021,08:00,19.324,R,ugm-3 (Ref.eq),4.78429,R,ugm-3,21.30550,R,ugm-3,28.64130,R,ugm-3
01-01-2021,09:00,26.087,R,ugm-3 (Ref.eq),5.11653,R,ugm-3,24.36985,R,ugm-3,32.21508,R,ugm-3
01-01-2021,10:00,29.952,R,ugm-3 (Ref.eq),6.47872,R,ugm-3,25.03810,R,ugm-3,34.97200,R,ugm-3
01-01-2021,11:00,30.918,R,ugm-3 (Ref.eq),10.06694,R,ugm-3,27.65384,R,ugm-3,43.08959,R,ugm-3
01-01-2021,12:00,37.682,R,ugm-3 (Ref.eq),13.55548,R,ugm-3,25.47016,R,ugm-3,46.25494,R,ugm-3
01-01-2021,13:00,34.783,R,ugm-3 (Ref.eq),18.00752,R,ugm-3,25.53608,R,ugm-3,53.14723,R,ugm-3
01-01-2021,14:00,28.020,R,ugm-3 (Ref.eq),20.49934,R,ugm-3,27.43340,R,ugm-3,58.86528,R,ugm-3
01-01-2021,15:00,32.851,R,ugm-3 (Ref.eq),16.81145,R,ugm-3,27.31898,R,ugm-3,53.09617,R,ugm-3
01-01-2021,16:00,31.885,R,ugm-3 (Ref.eq),20.83158,R,ugm-3,31.11040,R,ugm-3,63.05171,R,ugm-3
01-01-2021,17:00,34.783,R,ugm-3 (Ref.eq),22.59246,R,ugm-3,33.05633,R,ugm-3,67.69762,R,ugm-3
01-01-2021,18:00,28.986,R,ugm-3 (Ref.eq),27.67577,R,ugm-3,36.08549,R,ugm-3,78.52107,R,ugm-3
01-01-2021,19:00,29.952,R,ugm-3 (Ref.eq),15.41603,R,ugm-3,30.42861,R,ugm-3,54.06620,R,ugm-3
01-01-2021,20:00,21.256,R,ugm-3 (Ref.eq),11.39590,R,ugm-3,23.52290,R,ugm-3,40.99637,R,ugm-3
01-01-2021,21:00,26.087,R,ugm-3 (Ref.eq),10.00049,R,ugm-3,19.89340,R,ugm-3,35.22727,R,ugm-3
01-01-2021,22:00,18.358,R,ugm-3 (Ref.eq),5.48200,R,ugm-3,16.10032,R,ugm-3,24.50593,R,ugm-3
01-01-2021,23:00,22.223,R,ugm-3 (Ref.eq),3.78756,R,ugm-3,14.30777,R,ugm-3,20.11528,R,ugm-3
01-01-2021,24:00,15.459,R,ugm-3 (Ref.eq),4.85074,R,ugm-3,15.12819,R,ugm-3,22.56587,R,ugm-3
02-01-2021,01:00,16.425,R,ugm-3 (Ref.eq),2.13029,R,ugm-3,11.93830,R,ugm-3,15.20470,R,ugm-3
02-01-2021,02:00,16.425,R,ugm-3 (Ref.eq),2.52972,R,ugm-3,11.32585,R,ugm-3,15.20470,R,ugm-3
02-01-2021,03:00,12.561,R,ugm-3 (Ref.eq),1.59772,R,ugm-3,9.72078,R,ugm-3,12.17057,R,ugm-3
02-01-2021,04:00,20.290,R,ugm-3 (Ref.eq),1.19829,R,ugm-3,8.85026,R,ugm-3,10.68761,R,ugm-3
02-01-2021,05:00,7.730,R,ugm-3 (Ref.eq),1.53114,R,ugm-3,9.10694,R,ugm-3,11.45466,R,ugm-3
02-01-2021,06:00,9.662,R,ugm-3 (Ref.eq),3.69472,R,ugm-3,11.41456,R,ugm-3,17.07972,R,ugm-3
02-01-2021,07:00,10.628,R,ugm-3 (Ref.eq),4.06086,R,ugm-3,10.54633,R,ugm-3,16.77289,R,ugm-3
02-01-2021,08:00,11.594,R,ugm-3 (Ref.eq),4.52686,R,ugm-3,13.71820,R,ugm-3,20.65930,R,ugm-3
02-01-2021,09:00,8.696,R,ugm-3 (Ref.eq),9.55301,R,ugm-3,21.76171,R,ugm-3,36.40945,R,ugm-3
02-01-2021,10:00,14.493,R,ugm-3 (Ref.eq),14.87873,R,ugm-3,27.24926,R,ugm-3,50.06300,R,ugm-3
02-01-2021,11:00,7.730,R,ugm-3 (Ref.eq),9.28672,R,ugm-3,17.61883,R,ugm-3,31.85827,R,ugm-3
02-01-2021,12:00,13.527,R,ugm-3 (Ref.eq),15.77744,R,ugm-3,19.27459,R,ugm-3,43.46634,R,ugm-3
02-01-2021,13:00,7.730,R,ugm-3 (Ref.eq),10.11887,R,ugm-3,16.54744,R,ugm-3,32.06282,R,ugm-3
02-01-2021,14:00,12.561,R,ugm-3 (Ref.eq),14.64573,R,ugm-3,19.47576,R,ugm-3,41.93223,R,ugm-3
02-01-2021,15:00,12.561,R,ugm-3 (Ref.eq),14.11316,R,ugm-3,23.46285,R,ugm-3,45.10272,R,ugm-3
02-01-2021,16:00,16.425,R,ugm-3 (Ref.eq),34.35089,R,ugm-3,43.56896,R,ugm-3,96.23959,R,ugm-3
02-01-2021,17:00,14.493,R,ugm-3 (Ref.eq),29.02517,R,ugm-3,36.80298,R,ugm-3,81.30762,R,ugm-3
02-01-2021,18:00,11.594,R,ugm-3 (Ref.eq),17.24202,R,ugm-3,27.76769,R,ugm-3,54.20508,R,ugm-3
02-01-2021,19:00,19.324,R,ugm-3 (Ref.eq),15.61102,R,ugm-3,29.39920,R,ugm-3,53.33575,R,ugm-3
02-01-2021,20:00,27.054,R,ugm-3 (Ref.eq),15.11173,R,ugm-3,31.59659,R,ugm-3,54.76759,R,ugm-3
02-01-2021,21:00,16.425,R,ugm-3 (Ref.eq),10.85116,R,ugm-3,23.65765,R,ugm-3,40.29585,R,ugm-3
02-01-2021,22:00,17.392,R,ugm-3 (Ref.eq),10.48501,R,ugm-3,19.87243,R,ugm-3,35.94922,R,ugm-3
02-01-2021,23:00,16.425,R,ugm-3 (Ref.eq),5.02615,R,ugm-3,15.45835,R,ugm-3,23.16500,R,ugm-3
02-01-2021,24:00,12.561,R,ugm-3 (Ref.eq),5.19258,R,ugm-3,14.12929,R,ugm-3,22.09113,R,ugm-3
03-01-2021,01:00,13.527,R,ugm-3 (Ref.eq),4.62416,R,ugm-3,10.73419,R,ugm-3,17.82447,R,ugm-3
03-01-2021,02:00,7.730,R,ugm-3 (Ref.eq),2.17869,R,ugm-3,5.74235,R,ugm-3,9.08297,R,ugm-3
03-01-2021,03:00,5.797,R,ugm-3 (Ref.eq),2.33431,R,ugm-3,5.79398,R,ugm-3,9.37321,R,ugm-3
03-01-2021,04:00,9.662,R,ugm-3 (Ref.eq),2.00084,R,ugm-3,7.94433,R,ugm-3,11.01224,R,ugm-3
03-01-2021,05:00,9.662,R,ugm-3 (Ref.eq),2.56774,R,ugm-3,8.30437,R,ugm-3,12.24152,R,ugm-3
03-01-2021,06:00,12.561,R,ugm-3 (Ref.eq),2.43435,R,ugm-3,9.02109,R,ugm-3,12.75371,R,ugm-3
03-01-2021,07:00,12.561,R,ugm-3 (Ref.eq),4.66862,R,ugm-3,9.23186,R,ugm-3,16.39031,R,ugm-3
03-01-2021,08:00,11.594,R,ugm-3 (Ref.eq),6.36933,R,ugm-3,7.85341,R,ugm-3,17.61959,R,ugm-3
03-01-2021,09:00,11.594,R,ugm-3 (Ref.eq),7.97000,R,ugm-3,10.31618,R,ugm-3,22.53668,R,ugm-3
03-01-2021,10:00,11.594,R,ugm-3 (Ref.eq),6.80285,R,ugm-3,8.98139,R,ugm-3,19.41228,R,ugm-3
03-01-2021,11:00,7.730,R,ugm-3 (Ref.eq),7.93666,R,ugm-3,7.14047,R,ugm-3,19.30984,R,ugm-3
03-01-2021,12:00,14.493,R,ugm-3 (Ref.eq),8.33682,R,ugm-3,10.57325,R,ugm-3,23.35620,R,ugm-3
03-01-2021,13:00,9.662,R,ugm-3 (Ref.eq),19.50817,R,ugm-3,13.47101,R,ugm-3,43.38311,R,ugm-3
03-01-2021,14:00,12.561,R,ugm-3 (Ref.eq),13.17218,R,ugm-3,11.86649,R,ugm-3,32.06355,R,ugm-3
03-01-2021,15:00,11.594,R,ugm-3 (Ref.eq),19.17469,R,ugm-3,18.69454,R,ugm-3,48.09532,R,ugm-3
03-01-2021,16:00,9.662,R,ugm-3 (Ref.eq),15.00628,R,ugm-3,16.32744,R,ugm-3,39.33675,R,ugm-3
03-01-2021,17:00,9.662,R,ugm-3 (Ref.eq),20.17511,R,ugm-3,19.51669,R,ugm-3,50.45143,R,ugm-3
03-01-2021,18:00,6.763,R,ugm-3 (Ref.eq),14.33934,R,ugm-3,19.39886,R,ugm-3,41.38554,R,ugm-3
03-01-2021,19:00,8.696,R,ugm-3 (Ref.eq),21.14218,R,ugm-3,19.77534,R,ugm-3,52.19290,R,ugm-3
03-01-2021,20:00,19.324,R,ugm-3 (Ref.eq),20.07507,R,ugm-3,19.67009,R,ugm-3,50.45143,R,ugm-3
03-01-2021,21:00,10.628,R,ugm-3 (Ref.eq),11.83829,R,ugm-3,16.88250,R,ugm-3,35.03429,R,ugm-3
03-01-2021,22:00,11.594,R,ugm-3 (Ref.eq),13.43896,R,ugm-3,18.01356,R,ugm-3,38.61967,R,ugm-3
03-01-2021,23:00,15.459,R,ugm-3 (Ref.eq),6.66946,R,ugm-3,12.51520,R,ugm-3,22.74156,R,ugm-3
03-01-2021,24:00,14.493,R,ugm-3 (Ref.eq),4.80201,R,ugm-3,9.69319,R,ugm-3,17.05617,R,ugm-3
04-01-2021,01:00,8.696,R,ugm-3 (Ref.eq),3.69724,R,ugm-3,6.57519,R,ugm-3,12.24422,R,ugm-3
04-01-2021,02:00,9.662,R,ugm-3 (Ref.eq),2.27180,R,ugm-3,4.38302,R,ugm-3,7.86640,R,ugm-3
04-01-2021,03:00,9.662,R,ugm-3 (Ref.eq),2.13817,R,ugm-3,3.39086,R,ugm-3,6.66934,R,ugm-3
04-01-2021,04:00,10.628,R,ugm-3 (Ref.eq),1.70385,R,ugm-3,3.03075,R,ugm-3,5.64329,R,ugm-3
04-01-2021,05:00,16.425,R,ugm-3 (Ref.eq),1.97112,R,ugm-3,4.87825,R,ugm-3,7.90060,R,ugm-3
04-01-2021,06:00,9.662,R,ugm-3 (Ref.eq),5.41223,R,ugm-3,7.70777,R,ugm-3,16.00641,R,ugm-3
04-01-2021,07:00,9.662,R,ugm-3 (Ref.eq),12.02718,R,ugm-3,11.10887,R,ugm-3,29.55029,R,ugm-3
04-01-2021,08:00,12.561,R,ugm-3 (Ref.eq),21.71574,R,ugm-3,15.69696,R,ugm-3,48.99397,R,ugm-3
04-01-2021,09:00,12.561,R,ugm-3 (Ref.eq),18.20781,R,ugm-3,16.04806,R,ugm-3,43.96631,R,ugm-3
04-01-2021,10:00,11.594,R,ugm-3 (Ref.eq),13.49717,R,ugm-3,16.39640,R,ugm-3,37.09177,R,ugm-3
04-01-2021,11:00,8.696,R,ugm-3 (Ref.eq),15.66874,R,ugm-3,12.19455,R,ugm-3,36.21962,R,ugm-3
04-01-2021,12:00,10.628,R,ugm-3 (Ref.eq),14.23216,R,ugm-3,15.88505,R,ugm-3,37.70740,R,ugm-3
04-01-2021,13:00,13.527,R,ugm-3 (Ref.eq),16.47055,R,ugm-3,15.73627,R,ugm-3,40.99076,R,ugm-3
04-01-2021,14:00,15.459,R,ugm-3 (Ref.eq),17.74009,R,ugm-3,15.58526,R,ugm-3,42.78635,R,ugm-3
04-01-2021,15:00,11.594,R,ugm-3 (Ref.eq),17.77350,R,ugm-3,16.09836,R,ugm-3,43.35068,R,ugm-3
04-01-2021,16:00,20.290,R,ugm-3 (Ref.eq),20.54643,R,ugm-3,16.56643,R,ugm-3,48.07052,R,ugm-3
04-01-2021,17:00,11.594,R,ugm-3 (Ref.eq),24.68913,R,ugm-3,17.85847,R,ugm-3,55.71460,R,ugm-3
04-01-2021,18:00,11.594,R,ugm-3 (Ref.eq),19.10985,R,ugm-3,15.33188,R,ugm-3,44.63325,R,ugm-3
04-01-2021,19:00,8.696,R,ugm-3 (Ref.eq),12.82899,R,ugm-3,15.93315,R,ugm-3,35.60399,R,ugm-3
04-01-2021,20:00,12.561,R,ugm-3 (Ref.eq),10.55719,R,ugm-3,12.49068,R,ugm-3,28.67814,R,ugm-3
04-01-2021,21:00,13.527,R,ugm-3 (Ref.eq),7.68403,R,ugm-3,9.30335,R,ugm-3,21.08536,R,ugm-3
04-01-2021,22:00,9.662,R,ugm-3 (Ref.eq),5.84655,R,ugm-3,6.37489,R,ugm-3,15.33947,R,ugm-3
04-01-2021,23:00,8.696,R,ugm-3 (Ref.eq),5.47905,R,ugm-3,5.04019,R,ugm-3,13.44128,R,ugm-3
04-01-2021,24:00,7.730,R,ugm-3 (Ref.eq),4.04247,R,ugm-3,5.70383,R,ugm-3,11.90220,R,ugm-3
05-01-2021,01:00,7.730,R,ugm-3 (Ref.eq),2.05285,R,ugm-3,3.77225,R,ugm-3,6.91991,R,ugm-3
05-01-2021,02:00,7.730,R,ugm-3 (Ref.eq),3.48092,R,ugm-3,6.31003,R,ugm-3,11.64737,R,ugm-3
05-01-2021,03:00,11.594,R,ugm-3 (Ref.eq),2.04169,R,ugm-3,3.29263,R,ugm-3,6.42318,R,ugm-3
05-01-2021,04:00,7.730,R,ugm-3 (Ref.eq),1.84087,R,ugm-3,3.18947,R,ugm-3,6.01210,R,ugm-3
05-01-2021,05:00,8.696,R,ugm-3 (Ref.eq),1.84087,R,ugm-3,2.98393,R,ugm-3,5.80656,R,ugm-3
05-01-2021,06:00,9.662,R,ugm-3 (Ref.eq),4.28421,R,ugm-3,6.38010,R,ugm-3,12.94913,R,ugm-3
05-01-2021,07:00,11.594,R,ugm-3 (Ref.eq),12.55139,R,ugm-3,13.38456,R,ugm-3,32.62975,R,ugm-3
05-01-2021,08:00,9.662,R,ugm-3 (Ref.eq),20.11570,R,ugm-3,17.66422,R,ugm-3,48.50785,R,ugm-3
05-01-2021,09:00,11.594,R,ugm-3 (Ref.eq),16.73519,R,ugm-3,17.34935,R,ugm-3,43.00961,R,ugm-3
05-01-2021,10:00,8.696,R,ugm-3 (Ref.eq),15.06167,R,ugm-3,18.11689,R,ugm-3,41.21112,R,ugm-3
05-01-2021,11:00,10.628,R,ugm-3 (Ref.eq),16.80213,R,ugm-3,14.83159,R,ugm-3,40.59450,R,ugm-3
05-01-2021,12:00,13.527,R,ugm-3 (Ref.eq),12.98651,R,ugm-3,15.64636,R,ugm-3,35.55872,R,ugm-3
05-01-2021,13:00,17.392,R,ugm-3 (Ref.eq),11.27952,R,ugm-3,14.92365,R,ugm-3,32.21867,R,ugm-3
05-01-2021,14:00,17.392,R,ugm-3 (Ref.eq),17.77277,R,ugm-3,14.73070,R,ugm-3,41.98190,R,ugm-3
05-01-2021,15:00,11.594,R,ugm-3 (Ref.eq),13.82327,R,ugm-3,12.82178,R,ugm-3,34.01716,R,ugm-3
05-01-2021,16:00,10.628,R,ugm-3 (Ref.eq),15.02820,R,ugm-3,13.02966,R,ugm-3,36.07258,R,ugm-3
05-01-2021,17:00,14.493,R,ugm-3 (Ref.eq),18.54259,R,ugm-3,19.35689,R,ugm-3,47.78846,R,ugm-3
05-01-2021,18:00,8.696,R,ugm-3 (Ref.eq),16.16619,R,ugm-3,19.19812,R,ugm-3,43.98594,R,ugm-3
05-01-2021,19:00,10.628,R,ugm-3 (Ref.eq),11.48034,R,ugm-3,15.64344,R,ugm-3,33.24638,R,ugm-3
05-01-2021,20:00,18.358,R,ugm-3 (Ref.eq),7.86554,R,ugm-3,10.75481,R,ugm-3,22.81513,R,ugm-3
05-01-2021,21:00,9.662,R,ugm-3 (Ref.eq),6.86143,R,ugm-3,10.23901,R,ugm-3,20.75972,R,ugm-3
05-01-2021,22:00,15.459,R,ugm-3 (Ref.eq),6.39284,R,ugm-3,11.67689,R,ugm-3,21.47911,R,ugm-3
05-01-2021,23:00,15.459,R,ugm-3 (Ref.eq),8.03289,R,ugm-3,11.52592,R,ugm-3,23.84284,R,ugm-3
05-01-2021,24:00,14.493,R,ugm-3 (Ref.eq),7.02878,R,ugm-3,11.88367,R,ugm-3,22.66098,R,ugm-3
06-01-2021,01:00,8.696,R,ugm-3 (Ref.eq),3.84484,R,ugm-3,6.79946,R,ugm-3,12.69479,R,ugm-3
06-01-2021,02:00,11.594,R,ugm-3 (Ref.eq),5.09664,R,ugm-3,6.80142,R,ugm-3,14.61617,R,ugm-3
06-01-2021,03:00,8.696,R,ugm-3 (Ref.eq),4.12426,R,ugm-3,6.74843,R,ugm-3,13.07221,R,ugm-3
06-01-2021,04:00,11.594,R,ugm-3 (Ref.eq),3.72189,R,ugm-3,6.74780,R,ugm-3,12.45462,R,ugm-3
06-01-2021,05:00,9.662,R,ugm-3 (Ref.eq),3.08481,R,ugm-3,6.59241,R,ugm-3,11.32238,R,ugm-3
06-01-2021,06:00,7.730,R,ugm-3 (Ref.eq),8.61735,R,ugm-3,9.79194,R,ugm-3,23.00502,R,ugm-3
06-01-2021,07:00,13.527,R,ugm-3 (Ref.eq),18.14002,R,ugm-3,16.39444,R,ugm-3,44.20876,R,ugm-3
06-01-2021,08:00,16.425,R,ugm-3 (Ref.eq),32.65875,R,ugm-3,27.89399,R,ugm-3,77.97004,R,ugm-3
06-01-2021,09:00,14.493,R,ugm-3 (Ref.eq),24.94672,R,ugm-3,21.50019,R,ugm-3,59.75130,R,ugm-3
06-01-2021,10:00,11.594,R,ugm-3 (Ref.eq),23.67256,R,ugm-3,20.05716,R,ugm-3,56.35459,R,ugm-3
06-01-2021,11:00,,,,,,,,,,,,
06-01-2021,12:00,,,,,,,,,,,,
06-01-2021,13:00,,,,,,,,,,,,
06-01-2021,14:00,,,,29.13804,R,ugm-3,25.62400,R,ugm-3,70.30170,R,ugm-3
06-01-2021,15:00,,,,31.88755,R,ugm-3,29.28235,R,ugm-3,78.17591,R,ugm-3
06-01-2021,16:00,,,,57.27017,R,ugm-3,43.26928,R,ugm-3,131.08231,R,ugm-3
06-01-2021,17:00,,,,106.22476,R,ugm-3,57.55051,R,ugm-3,220.42620,R,ugm-3
06-01-2021,18:00,,,,85.30170,R,ugm-3,50.26107,R,ugm-3,181.05519,R,ugm-3
06-01-2021,19:00,,,,53.98417,R,ugm-3,44.65369,R,ugm-3,127.42827,R,ugm-3
06-01-2021,20:00,,,,32.75934,R,ugm-3,36.33447,R,ugm-3,86.56476,R,ugm-3
06-01-2021,21:00,,,,10.96449,R,ugm-3,33.46969,R,ugm-3,50.28167,R,ugm-3
06-01-2021,22:00,,,,28.60155,R,ugm-3,39.67320,R,ugm-3,83.52830,R,ugm-3
06-01-2021,23:00,,,,31.48518,R,ugm-3,36.28101,R,ugm-3,84.55761,R,ugm-3
06-01-2021,24:00,,,,17.97237,R,ugm-3,29.51785,R,ugm-3,57.07510,R,ugm-3
07-01-2021,01:00,,,,4.56031,R,ugm-3,19.86513,R,ugm-3,26.85750,R,ugm-3
07-01-2021,02:00,,,,3.08491,R,ugm-3,14.29679,R,ugm-3,19.02693,R,ugm-3
07-01-2021,03:00,,,,5.56626,R,ugm-3,18.15097,R,ugm-3,26.68578,R,ugm-3
07-01-2021,04:00,,,,2.01190,R,ugm-3,14.63696,R,ugm-3,17.72183,R,ugm-3
07-01-2021,05:00,,,,4.76150,R,ugm-3,19.12734,R,ugm-3,26.42819,R,ugm-3
07-01-2021,06:00,,,,5.83451,R,ugm-3,22.53073,R,ugm-3,31.47685,R,ugm-3
07-01-2021,07:00,,,,23.23744,R,ugm-3,37.47230,R,ugm-3,73.10254,R,ugm-3
07-01-2021,08:00,,,,32.96162,R,ugm-3,42.55068,R,ugm-3,93.09112,R,ugm-3
07-01-2021,09:00,,,,42.58520,R,ugm-3,43.66194,R,ugm-3,108.95834,R,ugm-3
07-01-2021,10:00,,,,28.33425,R,ugm-3,37.38484,R,ugm-3,80.83009,R,ugm-3
07-01-2021,11:00,,,,31.85507,R,ugm-3,42.08364,R,ugm-3,90.92741,R,ugm-3
07-01-2021,12:00,,,,37.75664,R,ugm-3,37.67122,R,ugm-3,95.56393,R,ugm-3
07-01-2021,13:00,,,,29.27314,R,ugm-3,35.43007,R,ugm-3,80.31492,R,ugm-3
07-01-2021,14:00,,,,25.21581,R,ugm-3,30.88418,R,ugm-3,69.54788,R,ugm-3
07-01-2021,15:00,,,,24.54517,R,ugm-3,33.09736,R,ugm-3,70.73276,R,ugm-3
07-01-2021,16:00,,,,26.89239,R,ugm-3,38.10167,R,ugm-3,79.33609,R,ugm-3
07-01-2021,17:00,,,,34.23582,R,ugm-3,44.25463,R,ugm-3,96.74882,R,ugm-3
07-01-2021,18:00,,,,32.52571,R,ugm-3,45.84643,R,ugm-3,95.71848,R,ugm-3
07-01-2021,19:00,,,,26.95945,R,ugm-3,40.31711,R,ugm-3,81.65436,R,ugm-3
07-01-2021,20:00,,,,20.68903,R,ugm-3,36.12508,R,ugm-3,67.84782,R,ugm-3
07-01-2021,21:00,,,,15.72635,R,ugm-3,32.04007,R,ugm-3,56.15347,R,ugm-3
07-01-2021,22:00,,,,8.81883,R,ugm-3,27.89761,R,ugm-3,41.41962,R,ugm-3
07-01-2021,23:00,,,,2.71606,R,ugm-3,23.75761,R,ugm-3,27.92218,R,ugm-3
07-01-2021,24:00,,,,1.47539,R,ugm-3,23.18713,R,ugm-3,25.44937,R,ugm-3
08-01-2021,01:00,,,,2.19081,R,ugm-3,27.78819,R,ugm-3,31.14738,R,ugm-3
08-01-2021,02:00,,,,4.33691,R,ugm-3,29.72316,R,ugm-3,36.37299,R,ugm-3
08-01-2021,03:00,,,,3.72214,R,ugm-3,28.53430,R,ugm-3,34.24149,R,ugm-3
08-01-2021,04:00,,,,3.21915,R,ugm-3,25.12849,R,ugm-3,30.06444,R,ugm-3
08-01-2021,05:00,,,,3.42034,R,ugm-3,23.84019,R,ugm-3,29.08464,R,ugm-3
08-01-2021,06:00,,,,7.98080,R,ugm-3,27.26443,R,ugm-3,39.50148,R,ugm-3
08-01-2021,07:00,,,,11.23348,R,ugm-3,27.84646,R,ugm-3,45.07088,R,ugm-3
08-01-2021,08:00,,,,30.74955,R,ugm-3,33.76235,R,ugm-3,80.91100,R,ugm-3
08-01-2021,09:00,,,,82.69181,R,ugm-3,45.91061,R,ugm-3,172.70295,R,ugm-3
08-01-2021,10:00,,,,131.98498,R,ugm-3,52.42588,R,ugm-3,254.80003,R,ugm-3
08-01-2021,11:00,,,,75.81759,R,ugm-3,41.34136,R,ugm-3,157.59338,R,ugm-3
08-01-2021,12:00,,,,73.63796,R,ugm-3,44.06459,R,ugm-3,156.97456,R,ugm-3
08-01-2021,13:00,,,,60.49312,R,ugm-3,42.97351,R,ugm-3,135.72833,R,ugm-3
08-01-2021,14:00,,,,72.63198,R,ugm-3,45.09139,R,ugm-3,156.45887,R,ugm-3
08-01-2021,15:00,30.918,R,ugm-3 (Ref.eq),67.16614,R,ugm-3,47.74812,R,ugm-3,150.73476,R,ugm-3
08-01-2021,16:00,40.580,R,ugm-3 (Ref.eq),91.74566,R,ugm-3,52.03682,R,ugm-3,192.71153,R,ugm-3
08-01-2021,17:00,29.952,R,ugm-3 (Ref.eq),92.21512,R,ugm-3,61.37285,R,ugm-3,202.76739,R,ugm-3
08-01-2021,18:00,26.087,R,ugm-3 (Ref.eq),54.65842,R,ugm-3,49.13523,R,ugm-3,132.94363,R,ugm-3
08-01-2021,19:00,25.121,R,ugm-3 (Ref.eq),47.48240,R,ugm-3,45.44127,R,ugm-3,118.24660,R,ugm-3
08-01-2021,20:00,20.290,R,ugm-3 (Ref.eq),32.56032,R,ugm-3,38.30860,R,ugm-3,88.23373,R,ugm-3
08-01-2021,21:00,22.223,R,ugm-3 (Ref.eq),22.43342,R,ugm-3,32.28065,R,ugm-3,66.67809,R,ugm-3
08-01-2021,22:00,22.223,R,ugm-3 (Ref.eq),22.33282,R,ugm-3,31.50667,R,ugm-3,65.74986,R,ugm-3
08-01-2021,23:00,24.155,R,ugm-3 (Ref.eq),17.80590,R,ugm-3,25.60729,R,ugm-3,52.90930,R,ugm-3
08-01-2021,24:00,24.155,R,ugm-3 (Ref.eq),15.45861,R,ugm-3,26.88585,R,ugm-3,50.58871,R,ugm-3
09-01-2021,01:00,20.290,R,ugm-3 (Ref.eq),10.86498,R,ugm-3,19.61231,R,ugm-3,36.27171,R,ugm-3
09-01-2021,02:00,19.324,R,ugm-3 (Ref.eq),3.48752,R,ugm-3,13.16694,R,ugm-3,18.51440,R,ugm-3
09-01-2021,03:00,23.189,R,ugm-3 (Ref.eq),6.87445,R,ugm-3,13.41105,R,ugm-3,23.95172,R,ugm-3
09-01-2021,04:00,11.594,R,ugm-3 (Ref.eq),7.34392,R,ugm-3,12.69120,R,ugm-3,23.95172,R,ugm-3
09-01-2021,05:00,10.628,R,ugm-3 (Ref.eq),5.70076,R,ugm-3,13.19749,R,ugm-3,21.93854,R,ugm-3
09-01-2021,06:00,14.493,R,ugm-3 (Ref.eq),12.20633,R,ugm-3,17.00498,R,ugm-3,35.72110,R,ugm-3
09-01-2021,07:00,10.628,R,ugm-3 (Ref.eq),29.44275,R,ugm-3,29.44610,R,ugm-3,74.59102,R,ugm-3
09-01-2021,08:00,12.561,R,ugm-3 (Ref.eq),37.82622,R,ugm-3,31.50983,R,ugm-3,89.50922,R,ugm-3
09-01-2021,09:00,13.527,R,ugm-3 (Ref.eq),56.06865,R,ugm-3,45.04104,R,ugm-3,131.01177,R,ugm-3
09-01-2021,10:00,15.459,R,ugm-3 (Ref.eq),32.46080,R,ugm-3,31.68396,R,ugm-3,81.45649,R,ugm-3
09-01-2021,11:00,11.594,R,ugm-3 (Ref.eq),12.60874,R,ugm-3,19.43355,R,ugm-3,38.76668,R,ugm-3
09-01-2021,12:00,12.561,R,ugm-3 (Ref.eq),15.52619,R,ugm-3,20.38030,R,ugm-3,44.18679,R,ugm-3
09-01-2021,13:00,17.392,R,ugm-3 (Ref.eq),16.93461,R,ugm-3,21.67930,R,ugm-3,47.64534,R,ugm-3
09-01-2021,14:00,19.324,R,ugm-3 (Ref.eq),53.11767,R,ugm-3,44.50704,R,ugm-3,125.95300,R,ugm-3
09-01-2021,15:00,19.324,R,ugm-3 (Ref.eq),41.17961,R,ugm-3,40.56356,R,ugm-3,103.70475,R,ugm-3
09-01-2021,16:00,20.290,R,ugm-3 (Ref.eq),37.92682,R,ugm-3,46.63512,R,ugm-3,104.78877,R,ugm-3
09-01-2021,17:00,13.527,R,ugm-3 (Ref.eq),41.24668,R,ugm-3,48.15212,R,ugm-3,111.39614,R,ugm-3
09-01-2021,18:00,16.425,R,ugm-3 (Ref.eq),31.75659,R,ugm-3,43.65557,R,ugm-3,92.34833,R,ugm-3
09-01-2021,19:00,16.425,R,ugm-3 (Ref.eq),27.79959,R,ugm-3,37.28245,R,ugm-3,79.90789,R,ugm-3
09-01-2021,20:00,22.223,R,ugm-3 (Ref.eq),23.44019,R,ugm-3,39.52745,R,ugm-3,75.46856,R,ugm-3
09-01-2021,21:00,19.324,R,ugm-3 (Ref.eq),18.20890,R,ugm-3,38.15378,R,ugm-3,66.07371,R,ugm-3
09-01-2021,22:00,16.425,R,ugm-3 (Ref.eq),13.44709,R,ugm-3,30.27882,R,ugm-3,50.89740,R,ugm-3
09-01-2021,23:00,14.493,R,ugm-3 (Ref.eq),7.91400,R,ugm-3,21.10871,R,ugm-3,33.24333,R,ugm-3
09-01-2021,24:00,12.561,R,ugm-3 (Ref.eq),7.41099,R,ugm-3,19.19573,R,ugm-3,30.55909,R,ugm-3
10-01-2021,01:00,9.662,R,ugm-3 (Ref.eq),4.15834,R,ugm-3,13.53478,R,ugm-3,19.91081,R,ugm-3
10-01-2021,02:00,5.797,R,ugm-3 (Ref.eq),3.71121,R,ugm-3,10.22443,R,ugm-3,15.91487,R,ugm-3
10-01-2021,03:00,11.594,R,ugm-3 (Ref.eq),2.34745,R,ugm-3,11.07538,R,ugm-3,14.67475,R,ugm-3
10-01-2021,04:00,14.493,R,ugm-3 (Ref.eq),2.61573,R,ugm-3,9.78560,R,ugm-3,13.79633,R,ugm-3
10-01-2021,05:00,12.561,R,ugm-3 (Ref.eq),2.01210,R,ugm-3,8.48927,R,ugm-3,11.57445,R,ugm-3
10-01-2021,06:00,9.662,R,ugm-3 (Ref.eq),5.09732,R,ugm-3,11.56109,R,ugm-3,19.37687,R,ugm-3
10-01-2021,07:00,9.662,R,ugm-3 (Ref.eq),7.24356,R,ugm-3,15.76262,R,ugm-3,26.86926,R,ugm-3
10-01-2021,08:00,17.392,R,ugm-3 (Ref.eq),7.84719,R,ugm-3,17.98904,R,ugm-3,30.02123,R,ugm-3
10-01-2021,09:00,17.392,R,ugm-3 (Ref.eq),9.65808,R,ugm-3,21.61967,R,ugm-3,36.42851,R,ugm-3
10-01-2021,10:00,16.425,R,ugm-3 (Ref.eq),9.92636,R,ugm-3,21.05330,R,ugm-3,36.27350,R,ugm-3
10-01-2021,11:00,21.256,R,ugm-3 (Ref.eq),7.78012,R,ugm-3,15.30161,R,ugm-3,27.23096,R,ugm-3
10-01-2021,12:00,18.358,R,ugm-3 (Ref.eq),8.38375,R,ugm-3,16.75295,R,ugm-3,29.60786,R,ugm-3
10-01-2021,13:00,24.155,R,ugm-3 (Ref.eq),11.26776,R,ugm-3,23.59529,R,ugm-3,40.87228,R,ugm-3
10-01-2021,14:00,29.952,R,ugm-3 (Ref.eq),11.60311,R,ugm-3,24.11452,R,ugm-3,41.90571,R,ugm-3
10-01-2021,15:00,24.155,R,ugm-3 (Ref.eq),10.19464,R,ugm-3,30.87293,R,ugm-3,46.50449,R,ugm-3
10-01-2021,16:00,26.087,R,ugm-3 (Ref.eq),8.11547,R,ugm-3,30.59894,R,ugm-3,43.04249,R,ugm-3
10-01-2021,17:00,28.020,R,ugm-3 (Ref.eq),5.16439,R,ugm-3,30.26673,R,ugm-3,38.18535,R,ugm-3
10-01-2021,18:00,27.054,R,ugm-3 (Ref.eq),7.71305,R,ugm-3,35.45305,R,ugm-3,47.27956,R,ugm-3
10-01-2021,19:00,9.662,R,ugm-3 (Ref.eq),9.42333,R,ugm-3,32.15892,R,ugm-3,46.60783,R,ugm-3
10-01-2021,20:00,12.561,R,ugm-3 (Ref.eq),11.16715,R,ugm-3,36.09907,R,ugm-3,53.22180,R,ugm-3
10-01-2021,21:00,14.493,R,ugm-3 (Ref.eq),1.07312,R,ugm-3,15.56123,R,ugm-3,17.20666,R,ugm-3
10-01-2021,22:00,20.290,R,ugm-3 (Ref.eq),2.34745,R,ugm-3,18.67111,R,ugm-3,22.27048,R,ugm-3
10-01-2021,23:00,23.189,R,ugm-3 (Ref.eq),1.00605,R,ugm-3,14.01058,R,ugm-3,15.55317,R,ugm-3
10-01-2021,24:00,30.918,R,ugm-3 (Ref.eq),3.01815,R,ugm-3,15.57585,R,ugm-3,20.20362,R,ugm-3
11-01-2021,01:00,21.256,R,ugm-3 (Ref.eq),1.11787,R,ugm-3,12.63053,R,ugm-3,14.34457,R,ugm-3
11-01-2021,02:00,20.290,R,ugm-3 (Ref.eq),1.34145,R,ugm-3,9.59811,R,ugm-3,11.65497,R,ugm-3
11-01-2021,03:00,17.392,R,ugm-3 (Ref.eq),0.90548,R,ugm-3,8.23214,R,ugm-3,9.62052,R,ugm-3
11-01-2021,04:00,10.628,R,ugm-3 (Ref.eq),1.03962,R,ugm-3,6.88855,R,ugm-3,8.48261,R,ugm-3
11-01-2021,05:00,12.561,R,ugm-3 (Ref.eq),4.59445,R,ugm-3,9.40326,R,ugm-3,16.44798,R,ugm-3
11-01-2021,06:00,9.662,R,ugm-3 (Ref.eq),1.54266,R,ugm-3,8.70339,R,ugm-3,11.06877,R,ugm-3
11-01-2021,07:00,9.662,R,ugm-3 (Ref.eq),1.24084,R,ugm-3,13.45921,R,ugm-3,15.36180,R,ugm-3
11-01-2021,08:00,7.730,R,ugm-3 (Ref.eq),3.15240,R,ugm-3,16.16602,R,ugm-3,20.99963,R,ugm-3
11-01-2021,09:00,7.730,R,ugm-3 (Ref.eq),10.36266,R,ugm-3,24.92043,R,ugm-3,40.80962,R,ugm-3
11-01-2021,10:00,9.662,R,ugm-3 (Ref.eq),11.67057,R,ugm-3,29.74247,R,ugm-3,47.63709,R,ugm-3
11-01-2021,11:00,12.561,R,ugm-3 (Ref.eq),16.96927,R,ugm-3,31.49704,R,ugm-3,57.51622,R,ugm-3
11-01-2021,12:00,9.662,R,ugm-3 (Ref.eq),16.36562,R,ugm-3,34.49155,R,ugm-3,59.58515,R,ugm-3
11-01-2021,13:00,6.763,R,ugm-3 (Ref.eq),16.46623,R,ugm-3,31.07872,R,ugm-3,56.32659,R,ugm-3
11-01-2021,14:00,5.797,R,ugm-3 (Ref.eq),13.85041,R,ugm-3,25.88285,R,ugm-3,47.11985,R,ugm-3
11-01-2021,15:00,4.831,R,ugm-3 (Ref.eq),18.91437,R,ugm-3,33.11797,R,ugm-3,62.11959,R,ugm-3
11-01-2021,16:00,4.831,R,ugm-3 (Ref.eq),16.36562,R,ugm-3,28.07787,R,ugm-3,53.17147,R,ugm-3
11-01-2021,17:00,5.797,R,ugm-3 (Ref.eq),19.48448,R,ugm-3,35.08858,R,ugm-3,64.96437,R,ugm-3
11-01-2021,18:00,9.662,R,ugm-3 (Ref.eq),13.61566,R,ugm-3,33.43233,R,ugm-3,54.30938,R,ugm-3
11-01-2021,19:00,11.594,R,ugm-3 (Ref.eq),9.96022,R,ugm-3,21.70997,R,ugm-3,36.98210,R,ugm-3
11-01-2021,20:00,5.797,R,ugm-3 (Ref.eq),9.02121,R,ugm-3,19.21880,R,ugm-3,33.05114,R,ugm-3
11-01-2021,21:00,9.662,R,ugm-3 (Ref.eq),8.61878,R,ugm-3,13.73252,R,ugm-3,26.94780,R,ugm-3
11-01-2021,22:00,6.763,R,ugm-3 (Ref.eq),3.55483,R,ugm-3,8.82495,R,ugm-3,14.27561,R,ugm-3
11-01-2021,23:00,5.797,R,ugm-3 (Ref.eq),2.88411,R,ugm-3,8.87063,R,ugm-3,13.29287,R,ugm-3
11-01-2021,24:00,6.763,R,ugm-3 (Ref.eq),3.11886,R,ugm-3,8.71758,R,ugm-3,13.49976,R,ugm-3
12-01-2021,01:00,3.865,R,ugm-3 (Ref.eq),2.32525,R,ugm-3,7.68706,R,ugm-3,11.25239,R,ugm-3
12-01-2021,02:00,2.899,R,ugm-3 (Ref.eq),2.32525,R,ugm-3,5.82317,R,ugm-3,9.38850,R,ugm-3
12-01-2021,03:00,4.831,R,ugm-3 (Ref.eq),1.07319,R,ugm-3,4.46389,R,ugm-3,6.10943,R,ugm-3
12-01-2021,04:00,7.730,R,ugm-3 (Ref.eq),2.98481,R,ugm-3,4.84636,R,ugm-3,9.42301,R,ugm-3
12-01-2021,05:00,5.797,R,ugm-3 (Ref.eq),2.31407,R,ugm-3,4.26981,R,ugm-3,7.81799,R,ugm-3
12-01-2021,06:00,8.696,R,ugm-3 (Ref.eq),3.32019,R,ugm-3,8.99186,R,ugm-3,14.08274,R,ugm-3
12-01-2021,07:00,9.662,R,ugm-3 (Ref.eq),11.87218,R,ugm-3,25.64950,R,ugm-3,43.85325,R,ugm-3
12-01-2021,08:00,17.392,R,ugm-3 (Ref.eq),17.67412,R,ugm-3,35.54756,R,ugm-3,62.64750,R,ugm-3